Home > Weather > Norfolk > Past weeks

Flag for Canada Past Weather in Norfolk, Ontario, Canada — Yesterday and Last 2 Weeks

Now
56 °F

Cool.


Feels Like: 56 °F
Forecast: 58 / 80 °F
Wind: 2 mph from Southwest

Location: Delhi Cs Ont

Current Time: May 25, 2016 at 1:21:59 AM

Latest Report: May 25, 2016 at 1:00 AM


Visibility: N/A

Pressure: 30.00 "Hg

Humidity: 62%

Dew Point: 43 °F

Location of NorfolkLocation

Past Weather in Norfolk — Graph

°F

Norfolk Temperature Yesterday

Maximum temperature yesterday: 81 °F (at 2:00 PM)
Minimum temperature yesterday: 44 °F (at 6:00 AM)
Average temperature yesterday: 65 °F

High & Low Weather Summary for the Past Weeks

 TemperatureHumidityPressure
High81 °F (May 24, 2:00 PM)98% (May 19, 4:00 AM)30.28 "Hg (May 19, 4:00 AM)
Low36 °F (May 16, 1:00 AM)17% (May 24, 2:00 PM)29.50 "Hg (May 14, 10:00 AM)
Average56 °F59%30.02 "Hg
* Reported May 10 12:00 AM — May 25 12:00 AM, Norfolk, Weather by CustomWeather, © 2016

Note: Actual official high and low records may vary slightly from our data, if they occured in-between our weather recording intervals... More about our weather records

Advertising

Norfolk Weather History for the Previous 24 Hours

Scroll right to see more
 ConditionsComfort  
Time TempWeatherWind HumidityBarometerVisibility
12:00 AM
Wed, May 25
60 °FRefreshingly cool.2 mph55%30.00 "HgN/A
11:00 PM
Tue, May 24
60 °FRefreshingly cool.3 mph50%30.01 "HgN/A
10:00 PM65 °FMild.3 mph39%29.99 "HgN/A
9:00 PM69 °FMild.5 mph32%29.99 "HgN/A
8:00 PM73 °FMild.5 mph27%29.98 "HgN/A
7:00 PM76 °FMild.8 mph22%29.97 "HgN/A
6:00 PM78 °FPleasantly warm.9 mph18%29.98 "HgN/A
5:00 PM79 °FPleasantly warm.9 mph20%29.98 "HgN/A
4:00 PM80 °FPleasantly warm.12 mph20%29.99 "HgN/A
3:00 PM80 °FPleasantly warm.9 mph23%29.98 "HgN/A
2:00 PM81 °FPleasantly warm.7 mph17%29.99 "HgN/A
1:00 PM80 °FPleasantly warm.7 mph19%29.99 "HgN/A
12:00 PM78 °FPleasantly warm.7 mph20%30.01 "HgN/A
11:00 AM75 °FMild.7 mph28%30.01 "HgN/A
10:00 AM70 °FMild.7 mph39%30.03 "HgN/A
9:00 AM65 °FMild.6 mph48%30.03 "HgN/A
8:00 AM57 °FCool.2 mph70%30.02 "HgN/A
7:00 AM46 °FCool.No wind97%30.00 "HgN/A
6:00 AM44 °FQuite cool.No wind97%29.99 "HgN/A
5:00 AM45 °FQuite cool.1 mph96%29.98 "HgN/A
4:00 AM46 °FCool.No wind95%29.98 "HgN/A
3:00 AM47 °FCool.No wind93%29.98 "HgN/A
2:00 AM49 °FCool.No wind87%29.98 "HgN/A
1:00 AM52 °FCool.1 mph80%29.98 "HgN/A
Weather by CustomWeather, © 2016

See weather overviewHow to use our weather pages